Location: Clanezzo
(45.7500°N, 9.6000°E)
Time: 06:24:12
(UTC+00:00)

Gbstr 26 Del rocket - Pass Details

Date: 02 October 2021
Orbit: 492 x 1263 km, 51.8° (Epoch: 20 October)

Event Time Altitude Azimuth Distance (km) Brightness Sun altitude
Rises 18:54:29 0° 250° (WSW) 3,779 7.9 -20.7°
Reaches altitude 10° 18:57:00 10° 252° (WSW) 2,924 7.2 -21.1°
Maximum altitude 19:04:17 75° 337° (NNW) 1,243 4.5 -22.3°
Enters shadow 19:09:40 24° 60° (ENE) 2,361 5.6 -23.2°
